Regional Weather Roundup
Issued by NWS

Home | Current Version | Previous Version | Text Only | Print | Product List | Glossary On
Versions: 1 2 3 4 5 6 7 8 9 10 11 12 13 14 15 16 17 18 19 20 21 22 23 24 25 26 27 28
000
ASUS45 KSLC 211710
RWRUT

UTAH REGIONAL WEATHER ROUNDUP
NATIONAL WEATHER SERVICE SALT LAKE CITY UT
1000 AM MST TUE FEB 21 2017

UTZ001>011-023>025-211800-

NORTHERN UTAH

CITY           SKY/WX    TMP DP  RH WIND       PRES   REMARKS
BRIGHAM CITY     N/A     51  39  64 CALM      30.03S
HILL AFB       MOSUNNY   54  37  53 S29       30.03F
LOGAN          CLOUDY    55  37  50 SW23G30   30.00S
OGDEN          SUNNY     56  38  50 S30G36    30.02F
SALT LAKE CITY MOSUNNY   56  38  50 S29G41    30.04S
TOOELE VALLEY  SUNNY     57  37  47 S30G39    30.02F
WENDOVER       SUNNY     55  34  44 SW23      30.01S
HEBER CITY     CLOUDY    52  32  46 SW17G28   30.11F
WEST JORDAN    SUNNY     57  46  66 SE30G43   30.06S

$$

UTZ011>015-024>027-211800-

CENTRAL/NORTHEAST UTAH

CITY           SKY/WX    TMP DP  RH WIND       PRES   REMARKS
PROVO AIRPORT  MOSUNNY   53  37  54 SW31G37   30.11F
MOAB/CANYONLAN CLOUDY    51  40  65 SE9       30.23F
DELTA          MOSUNNY   50  37  62 S21G32    30.17R
PRICE          CLOUDY    41  37  86 E5        30.24F
RICHFIELD      SUNNY     55  32  41 SW25G32   30.20F
ROOSEVELT      CLOUDY    46  36  66 CALM      30.22S
VERNAL         CLOUDY    47  36  65 SW13      30.18S

$$

UTZ013>016-019>022-027-211800-

SOUTHERN UTAH

CITY           SKY/WX    TMP DP  RH WIND       PRES   REMARKS
BRYCE CANYON   CLOUDY    37  34  89 SE9       30.35S FOG     WCI  30
CEDAR CITY     PTSUNNY   49  38  65 SW18G28   30.25R
MILFORD        CLOUDY    51  40  65 SW22G28   30.24R
ST GEORGE      MOSUNNY   52  45  77 NW5       30.29S
HANKSVILLE     MOSUNNY   54  39  58 CALM      30.25F
KANAB          PTSUNNY   54  43  66 SW9       30.37F
BLANDING       MOSUNNY   47  36  65 S6        30.44S

$$

REGIONAL REPORTS     COLORADO/ARIZONA

CITY           SKY/WX    TMP DP  RH WIND       PRES   REMARKS
CRAIG, CO      CLOUDY    50  31  48 SW21G29   30.19F
GRAND JUNCTION SUNNY     51  37  58 CALM      30.27S
RIFLE, CO      CLOUDY    51  35  54 VRB3      30.26F
MONTROSE, CO   SUNNY     53  30  41 NE5       30.32F
CORTEZ, CO     MOSUNNY   50  37  61 MISG      30.38S
COLORADO CITY    N/A     55  43  62 SE10      30.36S
PAGE, AZ       SUNNY     51  37  58 NE5       30.31S
GRAND CANYON   MOSUNNY   49  41  74 SW9       30.41S
KINGMAN, AZ    MOSUNNY   56  39  53 SE3       30.34F
FLAGSTAFF, AZ  SUNNY     49  38  65 W10       30.43S

$$

REGIONAL REPORTS    NEVADA/IDAHO/WYOMING

CITY           SKY/WX    TMP DP  RH WIND       PRES   REMARKS
LAS VEGAS, NV  CLOUDY    65  33  30 SW13G21   30.22R
ELY, NY        SUNNY     46  32  58 S31G43    30.10R
ELKO, NV       CLOUDY    51  33  50 S16G24    29.98F
POCATELLO, ID  CLOUDY    47  38  71 SW9       29.96S
BURLEY, ID     MOSUNNY   53  38  56 W8        29.93F
FORT BRIDGER,    N/A     46  31  56 SW16      30.09S
EVANSTON, WY   MOSUNNY   41  30  65 SW29      30.05F
ROCK SPRINGS,  SUNNY     47  29  49 S17       30.06F
KEMMERER, WY     N/A     41  32  70 SW20G29   30.05S

$$




USA.gov is the U.S. government's official web portal to all federal, state and local government web resources and services.